STARLINK-32221, 60342

Orbit data source: Space-Track

STARLINK-32221, 60342 is a payload satellite owned by SpaceX/Seattle (US) in LEO that was launched on Fri, 02 Aug 2024 UTC via an FALCON 9 launch vehicle from the Air Force Eastern Test Range (AFETR). Payload-class satellites include a variety of spacecraft equipped with specific instruments for various scientific and technological missions. These include communications satellites like Starlink; space stations such as the ISS; scientific satellites like the Hubble; Earth observation satellites from companies like Planet Labs, Umbra, and HawkEye 360; GPS; miniature CubeSats for education and research; and military/defense satellites.

Loading next visibility...
Identifier
60342, 2024-136P
Orbit
LEO
Last TLE update
18 hours ago
Origin
Manufacturer
SpaceX/Seattle
Mission
Operational Commercial Communications
Bus & Motor
STARLINK V2M, Unknown motor
Mass
730 kg wet, ~700 kg dry
Launch date (UTC)
2024-08-02 (11 months ago)
Launch vehicle
FALCON 9
Launch site
Air Force Eastern Test Range (AFETR)
Object type
Payload
Rocket body
Debris
Shape & HBR
Box + 2 Pan, 29 m
Radar Cross Section
33.884 m², Large (>1 m²)

Expand to show TLE details & history

TLE from 18 hours ago
0 STARLINK-32221
1 60342U 24136P   25187.18116225 -.00000400  00000-0 -13863-5 0  9992
2 60342  53.1597 140.6258 0001252 122.9757 237.1364 15.30190756 51926
Epoch: 2025-07-06T04:20Z
TLE epoch observation values (Epoch: 2025-07-06T04:20:52.418Z)
Latitude
-0.00004°
Longitude
150.99882°
Altitude
476.608 km
Speed
7.628 km/s
True Right ascension
09h 22m 30s
True Declination
0° 00' 00"
Sunlit
Object was in daylight at epoch
Visualization orbit readout
Latitude
34.77648°
Longitude
-63.60875°
Altitude
476.934 km
Speed
7.632 km/s
Apparent Right ascension
20h 30m 28s
Apparent Declination
-1° 04' 23"
Sunlit
Object is in full shadow
Visualization observer readout
Local Sidereal Time
10:10:42
Azimuth
36.766° NE
Elevation
-44.965°
Doppler factor
1
Orbital elements
Apogee altitude
476.357 km
Perigee altitude
474.641 km
Semi-major axis
6,853.636 km
Eccentricity
0.00013
Inclination
53.1597°
RAAN
140.6258°
Arg. of periapsis
122.9757°
True anomaly
Unknown
Mean anomaly
237.1364°
Eccentric anomaly
Unknown
Mean motion
3.82527 °/min
Orbital period
94.11 mins
BSTAR
-0.0000013863
Loading maneuver chart data...
Loading SW <> Apogee altitude chart data...
Loading historical data...
Loading historical data...
Loading historical data...
Loading historical data...
Loading historical data...
Loading historical data...
Loading historical data...

STARLINK-32221 Visibility forecast

Observer location: undefined°, undefined°

Span
Click to sort rows by Start time (UTC) header in descending order
Start Az.
Max El. time (UTC)
Max El. Az.
Max El.
End time (UTC)
End Az.
6 mins2025-07-06 23:19:37.444Z213.74° SW2025-07-06 23:22:37.444Z139.957° SSE40.333°2025-07-06 23:25:37.444Z59.165° ENE
4 mins2025-07-07 00:59:37.444Z305.401° NW2025-07-07 01:00:37.444Z329.05° NNW21.113°2025-07-07 01:03:37.444Z26.6° NE
5 mins2025-07-07 05:55:37.444Z328.562° NNW2025-07-07 05:57:37.444Z32.134° NE37.341°2025-07-07 06:00:37.444Z109.445° ESE
|